Regional Weather Roundup
Issued by NWS

Home | Current Version | Previous Version | Graphics & Text | Print | Product List | Glossary On
Versions: 1 2 3 4 5 6 7 8 9 10 11 12 13 14 15 16 17 18 19 20 21 22 23 24 25 26 27 28 29 30 31 32 33 34 35 36 37 38 39 40 41 42 43 44 45 46 47 48 49 50
000
ASUS43 KLOT 300008
RWRIL

ILLINOIS REGIONAL WEATHER ROUNDUP
NATIONAL WEATHER SERVICE CHICAGO/ROMEOVILLE IL
700 PM CDT SAT AUG 29 2015

NOTE: "FAIR" INDICATES FEW OR NO CLOUDS BELOW 12,000 FEET WITH NO
SIGNIFICANT WEATHER AND/OR OBSTRUCTIONS TO VISIBILITY.

* THESE STATIONS ARE NOT UNDER NWS QUALITY CONTROL. THEY ALSO MAY NOT
  REPORT WEATHER SUCH AS PRECIPITATION OR FOG.

ILZ001-002-007-009-015-016-024-300100-
NORTHWEST ILLINOIS

CITY           SKY/WX    TMP DP  RH WIND       PRES   REMARKS
MOLINE         CLOUDY    72  67  84 NE5       30.00S
6HR MIN TEMP:  72; 6HR MAX TEMP:  76; 6HR PCP: TRACE;

STERLING*      CLOUDY    72  66  83 N5        30.00R
SAVANNA*       CLOUDY    72  65  79 CALM      30.01S
$$

ILZ003-004-008-010-011-017-018-300100-
NORTH CENTRAL ILLINOIS

CITY           SKY/WX    TMP DP  RH WIND       PRES   REMARKS
ROCKFORD       CLOUDY    71  64  78 N5        30.03R
6HR MIN TEMP:  70; 6HR MAX TEMP:  72;

FREEPORT*      CLOUDY    67  64  88 N5        30.04S
ROCHELLE*      CLOUDY    69  65  89 N5        30.02S
DE KALB*       CLOUDY    68  65  90 N3        30.03R
PERU*          CLOUDY    72  67  84 N7        30.01R
$$

ILZ005-006-012>014-019>023-300100-
NORTHEAST ILLINOIS

CITY           SKY/WX    TMP DP  RH WIND       PRES   REMARKS
CHICAGO-OHARE  LGT RAIN  68  66  93 N3        30.00S FOG
6HR MIN TEMP:  67; 6HR MAX TEMP:  70; 6HR PCP:  0.08;

CHICAGO-MIDWAY DRIZZLE   72  67  84 N5        30.00R
6HR MIN TEMP:  72; 6HR MAX TEMP:  76; 6HR PCP:  0.05;

AURORA         LGT RAIN  70  68  93 CALM      30.01S FOG
6HR MIN TEMP:  70; 6HR MAX TEMP:  73; 6HR PCP:  0.07;

LANSING*       CLOUDY    73  68  86 SE3       30.00S
JOLIET*        LGT RAIN  72  69  90 N6        30.00R
WAUKEGAN       CLOUDY    65  64  97 VRB3      30.01S FOG
6HR MIN TEMP:  65; 6HR MAX TEMP:  67;

DUPAGE AIRPORT LGT RAIN  69  66  90 E3        30.00S FOG
6HR MIN TEMP:  67; 6HR MAX TEMP:  71; 6HR PCP:  0.02;

KANKAKEE*      CLOUDY    73  72  95 CALM      30.00F
WHEELING       CLOUDY    68  65  90 E3        30.02R FOG
6HR MIN TEMP:  68; 6HR MAX TEMP:  70; 6HR PCP: TRACE;

MORRIS*        DRIZZLE   70  68  92 CALM      29.99S
ROMEOVILLE*    LGT RAIN  70  67  92 N5        30.01R
NORTHERLY ISL    N/A     65  63  93 N5          N/A
$$

LMZ740>746-300100-
SOUTHERN LAKE MICHIGAN

STATION/POSITION SKY/WX   TEMP    WIND        PRES    VSBY  WAVE
                          AIR SEA DIR/SP/G                  HT/PER
                          (F)     (DEG/KT/KT) (MB)    (MI)  (FT/S)
SOUTHERN BUOY              68 68  140/ 10/ 10 1015.8F         1/ 3
WILMETTE HARBOR            58 55  140/  4/  6   N/A           1/ 3
HARRISON CRIB              67      20/  7/  7   N/A
BURNHAM HARBOR             66     350/  3/  4   N/A
BURNS HARBOR               73     180/  3/  7 1016.3S
MICHIGAN CITY              71     100/  3/  5   N/A
MICHIGAN CITY 6N           71 70  160/  4/  4   N/A           0
ST. JOSEPH                 70 70  180/  4/  6   N/A           0
$$

ILZ025>027-034>036-040-047-049-050-058-095>099-300100-
WEST-CENTRAL ILLINOIS

CITY           SKY/WX    TMP DP  RH WIND       PRES   REMARKS
QUINCY         CLOUDY    77  69  76 N5        29.99S
GALESBURG*     CLOUDY    75  69  79 CALM      29.99S
MACOMB*        CLOUDY    76  70  80 CALM      30.01S
JACKSONVILLE*  MOCLDY    79  70  74 CALM      29.98S HX  82
PITTSFIELD*    CLOUDY    79  70  75 CALM      30.00S HX  81
$$

ILZ028>032-037-038-041>044-048-051>054-059>061-300100-
CENTRAL ILLINOIS

CITY           SKY/WX    TMP DP  RH WIND       PRES   REMARKS
PONTIAC        CLOUDY    76  70  81 CALM      30.00S
BLOOMINGTON    MOCLDY    75  70  85 CALM      30.01S
DECATUR        CLOUDY    78  67  68 SW9       30.00S HX  80
PEORIA         CLOUDY    80  68  66 CALM      29.98S HX  83
6HR MIN TEMP:  80; 6HR MAX TEMP:  83;

LACON*         CLOUDY    74  68  83 CALM      29.99R
LINCOLN*       MOCLDY    79  67  65 S3        29.97F HX  81
SPRINGFIELD    MOCLDY    80  69  69 S9        29.99R HX  83
6HR MIN TEMP:  77; 6HR MAX TEMP:  83; 6HR PCP: TRACE;

TAYLORVILLE    CLOUDY    75  68  78 S6        30.00S
$$

ILZ033-039-045-046-055>057-062-063-300100-
EAST-CENTRAL ILLINOIS

CITY           SKY/WX    TMP DP  RH WIND       PRES   REMARKS
CHAMPAIGN      CLOUDY    75  67  76 S5        30.01S
RANTOUL*       CLOUDY    73  70  88 CALM      30.00S
MATTOON        CLOUDY    75  66  73 S5        30.01S
PARIS*         CLOUDY    75  69  81 S5        30.02S
$$

ILZ079-100>102-300100-
SOUTHWEST ILLINOIS

CITY           SKY/WX    TMP DP  RH WIND       PRES   REMARKS
ALTON          PTCLDY    77  68  73 S6        29.99F
BELLEVILLE     CLOUDY    76  70  80 E5        29.99R
CAHOKIA*       MOCLDY    80  68  66 S5        29.99S HX  83
SPARTA*        CLOUDY    74  68  80 S3        30.02R
$$

ILZ064>066-069>071-074>076-080>082-084>086-088>090-092>094-300100-
SOUTH-CENTRAL ILLINOIS

CITY           SKY/WX    TMP DP  RH WIND       PRES   REMARKS
CARBONDALE     CLOUDY    76  70  82 S3        30.00S
6HR MIN TEMP:  76; 6HR MAX TEMP:  80; 6HR PCP: TRACE;

CAIRO*         CLOUDY    78  75  90 CALM      30.00S HX  81
EFFINGHAM*     CLOUDY    75  66  72 SE3       30.03R
MARION         CLOUDY    79  72  78 CALM      30.01S HX  82
MT. VERNON     CLOUDY    73  68  83 CALM      30.02S
SALEM*         CLOUDY    75  66  74 CALM      30.01S
METROPOLIS*    CLOUDY    81  71  71 CALM      30.01S HX  84
$$

ILZ067-068-072-073-078-083-087-091-300100-
SOUTHEAST ILLINOIS

CITY           SKY/WX    TMP DP  RH WIND       PRES   REMARKS
LAWRENCEVILLE  LGT RAIN  76  70  82 CALM      30.02S
FLORA*         CLOUDY    74  68  82 CALM      30.02S
FAIRFIELD*     CLOUDY    73  70  91 CALM      30.00S
HARRISBURG*    CLOUDY    80  70  72 CALM      30.01S HX  83
ROBINSON*      CLOUDY    75  68  79 S3        30.03R
CARMI*         MOCLDY    76  73  90 CALM      30.00S
$$

ABBREVIATIONS USED IN REMARKS
   TC - TEMPERATURE IN CELSIUS
  WCI - WIND CHILL INDEX
   HX - HEAT INDEX
  VSB - VISIBILITY
$$



USA.gov is the U.S. government's official web portal to all federal, state and local government web resources and services.